Bloomington, IN

10:50 AM EDT on July 21, 2017 (GMT -0400)
Monroe County

Weather History for KBMG - January, 2014

Change the Weather History Date:

Thursday, January 2, 2014

  Actual Average Record
Temperature  
Mean Temperature 24 °F 29 °F  
Max Temperature 38 °F 38 °F 66 °F (2006)
Min Temperature 10 °F 21 °F 1 °F (2001)
Degree Days  
Heating Degree Days 41 36  
Month to date heating degree days 69 72  
Since 1 July heating degree days 2220 2145  
Cooling Degree Days 0 0  
Month to date cooling degree days 0 0  
Year to date cooling degree days 0 0  
Moisture  
Dew Point 18 °F    
Average Humidity 82    
Maximum Humidity 96    
Minimum Humidity 67    
Precipitation  
Precipitation 0.31 in 0.13 in 1.01 in (1999)
Month to date precipitation 0.31 0.27  
Year to date precipitation 0.31 0.27  
Sea Level Pressure  
Sea Level Pressure 30.03 in    
Wind  
Wind Speed 7 mph (NNW)    
Max Wind Speed 17 mph    
Max Gust Speed 27 mph    
Visibility 3 miles    
Events Snow    
T = Trace of Precipitation, MM = Missing Value Source: NWS Daily Summary

Daily Weather History Graph

Daily Weather History Graph

Search for Another Location

Airport or City:

Trip Planner

Search our weather history database for the weather conditions in past years. The results will help you decide how hot, cold, wet, or windy it might be!

Date:

Astronomy

Jan. 02, 2014 Rise Set
Actual Time 8:05 AM EST 5:35 PM EST
Civil Twilight 7:36 AM EST 6:05 PM EST
Nautical Twilight 7:02 AM EST 6:38 PM EST
Astronomical Twilight 6:30 AM EST 7:11 PM EST
Moon 8:47 AM EST (1/2) 7:30 PM EST (1/2)
Length of Visible Light 10h 29m
Length of Day
9h 29m
New Moon, 2% of the Moon is Illuminated
Jan 2
New Moon
Jan 7
First Quarter
Jan 15
Full
Jan 24
Last Quarter
Jan 30
New

Hourly Weather History & Observations

Time (EST) Temp. Windchill Dew Point Humidity Pressure Visibility Wind Dir Wind Speed Gust Speed Precip Events Conditions
12:21 AM 36.0 °F 29.6 °F 30.0 °F 79% 30.00 in 8.0 mi SSW 8.1 mph - 0.00 in Snow Light Snow
12:46 AM 34.0 °F 31.0 °F 30.9 °F 89% 30.00 in 1.8 mi WSW 3.5 mph - 0.02 in Snow Light Snow
12:53 AM 34.0 °F - 30.9 °F 89% 30.00 in 1.8 mi Calm Calm - 0.03 in Snow Light Snow
1:01 AM 33.1 °F - 30.9 °F 92% 29.99 in 2.5 mi Calm Calm - 0.00 in Snow Light Snow
1:11 AM 33.1 °F - 30.9 °F 92% 29.98 in 1.5 mi Calm Calm - 0.01 in Snow Light Snow
1:31 AM 33.1 °F 28.7 °F 30.9 °F 92% 29.97 in 1.5 mi NNE 4.6 mph - 0.03 in Snow Light Snow
1:48 AM 33.8 °F - 32.0 °F 93% 29.96 in 2.0 mi Calm Calm - 0.05 in Snow Light Snow
1:53 AM 33.1 °F - 32.0 °F 96% 29.97 in 1.5 mi Calm Calm - 0.05 in Snow Light Snow
2:01 AM 33.1 °F - 32.0 °F 96% 29.95 in 0.8 mi Calm Calm - 0.02 in Snow Light Snow
2:21 AM 33.1 °F 30.0 °F 30.9 °F 92% 29.94 in 1.5 mi NE 3.5 mph - 0.04 in Snow Light Snow
2:26 AM 33.1 °F 30.0 °F 30.9 °F 92% 29.94 in 2.0 mi NE 3.5 mph - 0.05 in Snow Light Snow
2:38 AM 33.1 °F - 32.0 °F 96% 29.94 in 1.8 mi Calm Calm - 0.05 in Snow Light Snow
2:53 AM 33.1 °F - 30.9 °F 92% 29.96 in 1.0 mi Calm Calm - 0.06 in Snow Light Snow
3:10 AM 33.1 °F - 30.9 °F 92% 29.93 in 0.8 mi Calm Calm - 0.03 in Snow Light Snow
3:53 AM 33.1 °F - 30.9 °F 92% 29.93 in 0.8 mi Calm Calm - 0.07 in Snow Light Snow
4:00 AM 33.1 °F - 30.9 °F 92% 29.91 in 1.0 mi Calm Calm - 0.00 in Snow Light Snow
4:30 AM 33.1 °F - 30.9 °F 92% 29.89 in 2.5 mi Calm Calm - 0.01 in Snow Light Snow
4:40 AM 33.1 °F - 30.9 °F 92% 29.89 in 3.0 mi Calm Calm - 0.01 in   Overcast
4:53 AM 33.1 °F 30.0 °F 30.9 °F 92% 29.89 in 3.0 mi East 3.5 mph - 0.01 in   Overcast
5:23 AM 33.1 °F 30.0 °F 30.9 °F 92% 29.88 in 2.0 mi North 3.5 mph - 0.01 in Snow Light Snow
5:32 AM 33.1 °F 30.0 °F 30.9 °F 92% 29.88 in 1.5 mi North 3.5 mph - 0.02 in Snow Light Snow
5:53 AM 33.1 °F 27.7 °F 30.0 °F 89% 29.90 in 0.8 mi North 5.8 mph - 0.03 in Snow Light Snow
6:27 AM 30.9 °F 22.8 °F 28.9 °F 92% 29.88 in 1.0 mi North 9.2 mph - 0.03 in Snow Light Snow
6:53 AM 27.0 °F 18.0 °F 24.1 °F 89% 29.91 in 1.0 mi North 9.2 mph - 0.04 in Snow Light Snow
7:02 AM 26.1 °F 16.2 °F 23.0 °F 88% 29.88 in 1.5 mi North 10.4 mph - 0.00 in Snow Light Snow
7:22 AM 24.1 °F 13.7 °F 21.0 °F 88% 29.89 in 0.8 mi NNW 10.4 mph - 0.01 in Snow Light Snow
7:31 AM 23.0 °F 12.4 °F 19.0 °F 85% 29.89 in 1.2 mi North 10.4 mph - 0.01 in Snow Light Snow
7:53 AM 21.0 °F 10.6 °F 17.1 °F 85% 29.93 in 1.5 mi NNW 9.2 mph 17.3 mph 0.01 in Snow Light Snow
8:23 AM 21.0 °F 9.3 °F 16.0 °F 81% 29.91 in 2.5 mi NNW 11.5 mph 20.7 mph 0.01 in Snow Light Snow
8:30 AM 19.9 °F 9.3 °F 16.0 °F 85% 29.92 in 3.0 mi NNW 9.2 mph 17.3 mph 0.01 in Snow Light Snow
8:36 AM 19.9 °F 9.3 °F 16.0 °F 85% 29.92 in 2.5 mi NNW 9.2 mph 16.1 mph 0.01 in Snow Light Snow
8:53 AM 19.9 °F 8.6 °F 15.1 °F 81% 29.96 in 2.5 mi North 10.4 mph 18.4 mph 0.01 in Snow Light Snow
9:18 AM 19.9 °F 8.6 °F 15.1 °F 81% 29.93 in 3.0 mi NNW 10.4 mph 23.0 mph 0.00 in Snow Light Snow
9:53 AM 19.0 °F 7.5 °F 12.9 °F 77% 30.00 in 3.0 mi North 10.4 mph 19.6 mph 0.00 in Snow Light Snow
10:51 AM 19.4 °F 9.5 °F 12.2 °F 74% 29.99 in 2.5 mi NNW 8.1 mph 17.3 mph 0.00 in Snow Light Snow
10:52 AM 19.0 °F 8.2 °F 12.9 °F 77% 30.02 in 2.5 mi NNW 9.2 mph 17.3 mph 0.00 in Snow Light Snow
11:04 AM 19.0 °F 10.0 °F 12.9 °F 77% 30.00 in 1.2 mi NNW 6.9 mph 16.1 mph 0.00 in Snow Light Snow
11:34 AM 19.0 °F 6.8 °F 12.9 °F 77% 30.00 in 3.0 mi NNW 11.5 mph 18.4 mph 0.00 in Snow Light Snow
11:53 AM 19.0 °F 9.0 °F 12.9 °F 77% 30.02 in 6.0 mi NNW 8.1 mph 17.3 mph 0.00 in Snow Light Snow
12:42 PM 19.0 °F 6.1 °F 12.0 °F 74% 30.00 in 2.0 mi NNW 12.7 mph 23.0 mph 0.00 in Snow Light Snow
12:53 PM 19.0 °F 10.0 °F 12.0 °F 74% 30.03 in 2.5 mi NNW 6.9 mph 21.9 mph 0.00 in Snow Light Snow
1:33 PM 19.0 °F 10.0 °F 12.9 °F 77% 30.00 in 1.5 mi Variable 6.9 mph - 0.00 in Snow Light Snow
1:53 PM 19.0 °F 9.0 °F 12.0 °F 74% 30.04 in 1.8 mi NNW 8.1 mph - 0.00 in Snow Light Snow
2:00 PM 19.0 °F 8.2 °F 12.0 °F 74% 30.01 in 2.0 mi NW 9.2 mph - 0.00 in Snow Light Snow
2:10 PM 18.0 °F 6.9 °F 12.0 °F 78% 30.02 in 1.5 mi NNW 9.2 mph 16.1 mph 0.00 in Snow Light Snow
2:28 PM 18.0 °F 7.7 °F 12.0 °F 78% 30.02 in 2.0 mi NNW 8.1 mph 19.6 mph 0.00 in Snow Light Snow
2:53 PM 17.1 °F 5.0 °F 10.9 °F 77% 30.07 in 1.5 mi NNW 10.4 mph 19.6 mph 0.00 in Snow Light Snow
3:05 PM 17.1 °F 5.8 °F 10.9 °F 77% 30.05 in 3.0 mi NNW 9.2 mph - 0.00 in Snow Light Snow
3:14 PM 17.1 °F 4.3 °F 10.9 °F 77% 30.05 in 2.0 mi NNW 11.5 mph 20.7 mph 0.00 in Snow Light Snow
3:23 PM 17.1 °F 5.8 °F 10.9 °F 77% 30.06 in 1.5 mi NNW 9.2 mph 19.6 mph 0.00 in Snow Light Snow
3:29 PM 17.1 °F 3.0 °F 10.0 °F 74% 30.06 in 2.0 mi North 13.8 mph 23.0 mph 0.00 in Snow Light Snow
3:32 PM 17.1 °F 2.0 °F 10.0 °F 74% 30.06 in 3.0 mi North 16.1 mph 23.0 mph 0.00 in Snow Light Snow
3:44 PM 17.1 °F 4.3 °F 10.9 °F 77% 30.07 in 2.5 mi North 11.5 mph - 0.00 in Snow Light Snow
3:53 PM 17.1 °F 5.0 °F 10.9 °F 77% 30.11 in 1.8 mi NNW 10.4 mph 19.6 mph 0.00 in Snow Light Snow
4:05 PM 17.1 °F 4.3 °F 10.9 °F 77% 30.09 in 2.0 mi North 11.5 mph 19.6 mph 0.00 in Snow Light Snow
4:11 PM 17.1 °F 3.0 °F 10.9 °F 77% 30.09 in 0.8 mi North 13.8 mph 21.9 mph 0.00 in Snow Light Snow
4:23 PM 17.1 °F 4.3 °F 10.0 °F 74% 30.10 in 1.5 mi NNW 11.5 mph 26.5 mph 0.00 in Snow Light Snow
4:53 PM 17.1 °F 3.6 °F 10.0 °F 74% 30.16 in 1.5 mi North 12.7 mph 19.6 mph 0.00 in Snow Light Snow
5:10 PM 16.0 °F 3.6 °F 10.0 °F 77% 30.14 in 2.5 mi North 10.4 mph 19.6 mph 0.00 in Snow Light Snow
5:20 PM 16.0 °F 5.3 °F 10.9 °F 81% 30.15 in 1.2 mi NNW 8.1 mph 18.4 mph 0.00 in Snow Light Snow
5:46 PM 16.0 °F 4.4 °F 10.0 °F 77% 30.17 in 2.5 mi North 9.2 mph 18.4 mph 0.00 in Snow Light Snow
5:53 PM 16.0 °F 2.3 °F 10.0 °F 77% 30.20 in 2.5 mi NNW 12.7 mph 19.6 mph 0.00 in Snow Light Snow
6:12 PM 15.1 °F 5.2 °F 9.0 °F 77% 30.18 in 3.0 mi Variable 6.9 mph 18.4 mph 0.00 in Snow Light Snow
6:53 PM 15.1 °F 2.5 °F 9.0 °F 77% 30.25 in 3.0 mi NNW 10.4 mph 20.7 mph 0.00 in Snow Light Snow
7:37 PM 14.0 °F 1.2 °F 9.0 °F 80% 30.25 in 3.0 mi North 10.4 mph - 0.00 in Snow Light Snow
7:44 PM 14.0 °F 1.2 °F 8.1 °F 77% 30.25 in 3.0 mi North 10.4 mph 17.3 mph 0.00 in Snow Light Snow
7:53 PM 14.0 °F 2.9 °F 8.1 °F 77% 30.30 in 4.0 mi NNW 8.1 mph - 0.00 in Snow Light Snow
8:24 PM 12.9 °F 2.6 °F 7.0 °F 77% 30.28 in 10.0 mi NNW 6.9 mph - 0.00 in   Mostly Cloudy
8:53 PM 12.9 °F 2.6 °F 7.0 °F 77% 30.33 in 10.0 mi NNW 6.9 mph - 0.00 in   Overcast
9:53 PM 12.0 °F 5.9 °F 3.9 °F 70% 30.34 in 10.0 mi NW 3.5 mph - N/A   Clear
10:53 PM 10.9 °F 4.7 °F 3.0 °F 70% 30.37 in 10.0 mi NW 3.5 mph - N/A   Clear
11:53 PM 10.0 °F 1.8 °F 1.9 °F 70% 30.39 in 10.0 mi NW 4.6 mph - N/A   Clear